[[{"header":{"parameterUnit":"m.s-1","parameterCategory":2,"la1":30.2992,"la2":30.254,"lo1":-89.0895,"lo2":-89.0443,"dy":0.0025,"dx":0.0025,"nx":19,"ny":19,"refTime":"2026-04-24T21:00:00:Z","depth":"0","parameterNumber":2,"parameterNumberName":"U-component_of_CURRENTS"},"data":[0,0,0,-0.08,-0.0802,-0.0894,-0.0895,-0.0982,-0.0983,0,0,0,0,0,0,0,0,0,0,0,-0.0758,-0.0758,-0.08,-0.0803,-0.0894,-0.0895,-0.0982,-0.0983,0,0,0,0,0,0,0,0,0,0,0,-0.0757,-0.0758,-0.0759,-0.0803,-0.0894,-0.0895,-0.0982,-0.0917,0,0,0,0,0,0,0,0,0,0,-0.083,-0.0795,-0.0758,-0.0759,-0.0804,-0.0894,-0.0895,-0.0914,-0.0921,-0.0936,0,-0.0955,0,-0.0982,-0.0989,-0.0989,0,0,0,-0.079,-0.0789,-0.0824,-0.0759,-0.0805,-0.0894,-0.0849,-0.0918,-0.0926,-0.0945,-0.0957,-0.0961,-0.0984,-0.099,-0.099,-0.1131,-0.1132,0,0,-0.0785,-0.0764,-0.0818,-0.0829,-0.0836,-0.0847,-0.0852,-0.0923,-0.0927,-0.0957,-0.0963,-0.0985,-0.099,-0.0991,-0.113,-0.1131,0,0,0,-0.0779,-0.0761,-0.0794,-0.0825,-0.085,-0.085,-0.0856,-0.0924,-0.0938,-0.0964,-0.0986,-0.0991,-0.0992,-0.113,-0.1131,-0.1044,0,0,0,-0.0775,-0.0759,-0.0791,-0.0779,-0.0849,-0.0892,-0.0855,-0.0932,-0.0942,-0.0986,-0.0991,-0.0993,-0.1129,-0.113,-0.1044,-0.0973,0,0,0,-0.0752,-0.0756,-0.0771,-0.0778,-0.0826,-0.0892,-0.0909,-0.0935,-0.0956,-0.099,-0.0993,-0.1128,-0.113,-0.1044,-0.0976,-0.0918,0,0,0,-0.0722,-0.0749,-0.077,-0.0801,-0.0826,-0.0894,-0.0909,-0.0936,-0.0959,-0.0991,-0.1129,-0.1131,-0.1044,-0.0978,-0.0921,-0.0777,-0.0755,0,0,-0.074,-0.0751,-0.0767,-0.0789,-0.0835,-0.088,-0.0933,-0.0952,-0.1003,-0.1099,-0.1102,-0.1044,-0.0976,-0.0919,-0.0892,-0.0865,0,0,0,-0.0762,-0.0754,-0.0776,-0.0805,-0.0873,-0.0901,-0.0958,-0.0988,-0.1044,-0.1033,-0.1109,-0.107,-0.1035,-0.0957,-0.0938,-0.0824,-0.114,-0.114,-0.1139,-0.07,-0.0739,-0.0752,-0.0797,-0.0842,-0.092,-0.0939,-0.1003,-0.1059,-0.1079,-0.1049,-0.1011,-0.0932,-0.0914,-0.0801,-0.1125,-0.1124,-0.1124,-0.1124,-0.068,-0.069,-0.0709,-0.0736,-0.0791,-0.0845,-0.0916,-0.0943,-0.0984,-0.1052,-0.1022,-0.0932,-0.0886,-0.0774,-0.1119,-0.112,-0.1121,-0.1121,-0.1122,-0.0659,-0.0668,-0.068,-0.0704,-0.0699,-0.0754,-0.0741,-0.0797,-0.0875,-0.0858,-0.0778,-0.0778,-0.0631,-0.0844,-0.0843,-0.0843,-0.0842,-0.0842,-0.0841,-0.065,-0.0662,-0.064,-0.0645,-0.0623,-0.059,-0.0616,-0.0608,-0.0593,-0.066,-0.066,-0.0609,-0.0925,-0.0879,-0.0833,-0.0835,-0.0836,-0.0836,-0.0837,-0.0654,-0.0643,-0.0616,-0.059,-0.0488,-0.0447,-0.043,-0.0355,-0.0364,-0.0324,-0.0299,-0.0564,-0.0565,-0.0582,-0.0531,-0.0397,-0.0397,-0.0397,-0.0397,-0.0616,-0.0626,-0.0537,-0.0474,-0.0392,-0.0352,-0.0267,-0.0236,-0.014,-0.0074,-0.0056,-0.0082,-0.0105,-0.0084,-0.0111,-0.0055,0.0198,0.0198,0.0199,-0.0579,-0.0568,-0.0497,-0.0438,-0.0342,-0.0267,-0.0203,-0.0151,0.006,0.0228,0.0078,0.0053,0.001,-0.0035,-0.0016,-0.0064,0.0022,0,0]},{"header":{"parameterUnit":"m.s-1","parameterCategory":2,"la1":30.2992,"la2":30.254,"lo1":-89.0895,"lo2":-89.0443,"dy":0.0025,"dx":0.0025,"nx":19,"ny":19,"refTime":"2026-04-24T21:00:00:Z","depth":"0","parameterNumber":3,"parameterNumberName":"V-component_of_CURRENTS"},"data":[0,0,0,0.0306,0.0308,0.0412,0.0413,0.0622,0.0624,0,0,0,0,0,0,0,0,0,0,0,0.0243,0.0243,0.0306,0.0308,0.0412,0.0413,0.0622,0.0624,0,0,0,0,0,0,0,0,0,0,0,0.0243,0.0243,0.0243,0.0308,0.0412,0.0413,0.0622,0.0527,0,0,0,0,0,0,0,0,0,0,0.0417,0.0365,0.0243,0.0243,0.0309,0.0412,0.0413,0.0522,0.0533,0.0592,0,0.0577,0,0.0614,0.0639,0.064,0,0,0,0.0322,0.0355,0.0364,0.0243,0.0309,0.0412,0.0369,0.0528,0.054,0.0607,0.058,0.0588,0.0617,0.064,0.0641,0.0744,0.0743,0,0,0.0316,0.0294,0.0355,0.0371,0.0299,0.0366,0.0372,0.0535,0.0545,0.0581,0.0594,0.0621,0.0642,0.0643,0.0744,0.0743,0,0,0,0.029,0.029,0.0294,0.0362,0.0379,0.0368,0.0376,0.0538,0.0532,0.0596,0.0623,0.0643,0.0646,0.0745,0.0744,0.0603,0,0,0,0.0287,0.0274,0.0291,0.0284,0.0375,0.0457,0.0375,0.052,0.054,0.0622,0.0643,0.0648,0.0745,0.0744,0.0608,0.058,0,0,0,0.0245,0.0272,0.0266,0.0282,0.0322,0.0454,0.046,0.0525,0.0558,0.064,0.0648,0.0745,0.0744,0.0613,0.0587,0.0576,0,0,0,0.0246,0.0222,0.0264,0.0255,0.032,0.0357,0.0459,0.0518,0.0577,0.0644,0.0745,0.0744,0.0614,0.0592,0.058,0.061,0.0596,0,0,0.0215,0.0218,0.0212,0.0252,0.0266,0.0346,0.0365,0.0487,0.0582,0.0702,0.0704,0.0606,0.0588,0.0577,0.0541,0.0529,0,0,0,0.0202,0.0196,0.0213,0.0227,0.0265,0.0301,0.0405,0.0447,0.0532,0.061,0.0622,0.0616,0.0613,0.0639,0.0629,0.075,0.0738,0.0738,0.0739,0.017,0.0173,0.0167,0.0181,0.0194,0.0271,0.0298,0.0374,0.0471,0.0473,0.051,0.0424,0.0447,0.0441,0.0563,0.0505,0.0504,0.0504,0.0504,0.0112,0.0105,0.0105,0.0097,0.0123,0.0134,0.0202,0.0254,0.0322,0.0396,0.0399,0.0501,0.0422,0.0556,0.0495,0.0496,0.0498,0.0498,0.0499,0.008,0.0078,0.0062,0.003,0.0038,0.0082,0.0099,0.0165,0.0221,0.0219,0.0324,0.0327,0.0444,0.0239,0.0239,0.0239,0.0238,0.0238,0.0238,0.0055,0.0038,0.0025,0.0005,0.0005,0.0026,0.0086,0.012,0.0177,0.0209,0.0211,0.0434,0.0345,0.0354,0.0235,0.0235,0.0236,0.0236,0.0236,0.0031,0.0035,0.0002,-0.0003,0.0023,0.0022,0.009,0.0157,0.0191,0.0211,0.035,0.0216,0.0285,0.0295,0.0304,0.018,0.018,0.018,0.018,0.0035,0.003,0.0012,0.0012,0.0011,0.0038,0.0103,0.0191,0.0312,0.0354,0.0393,0.045,0.0447,0.0531,0.0535,0.0553,0.0494,0.0495,0.0495,0.0029,0.0024,0.002,0.0027,0.0004,0.0046,0.0074,0.0245,0.0426,0.052,0.055,0.0536,0.0634,0.062,0.0766,0.0763,0.0797,0,0]}],[{"header":{"parameterUnit":"m.s-1","parameterCategory":2,"la1":30.2992,"la2":30.254,"lo1":-89.0895,"lo2":-89.0443,"dy":0.0025,"dx":0.0025,"nx":19,"ny":19,"refTime":"2026-04-24T21:00:00:Z","depth":"2","parameterNumber":2,"parameterNumberName":"U-component_of_CURRENTS"},"data":[0,0,0,-0.2171,-0.217,-0.2143,-0.2143,-0.206,-0.2059,0,0,0,0,0,0,0,0,0,0,0,-0.2188,-0.2188,-0.2171,-0.217,-0.2143,-0.2143,-0.206,-0.2059,0,0,0,0,0,0,0,0,0,0,0,-0.2188,-0.2188,-0.2188,-0.217,-0.2143,-0.2143,-0.2061,-0.2096,0,0,0,0,0,0,0,0,0,0,-0.213,-0.2182,-0.2188,-0.2187,-0.2169,-0.2143,-0.2143,-0.2099,-0.2094,-0.2053,0,-0.2045,0,-0.2037,-0.2051,-0.2051,0,0,0,-0.2184,-0.2186,-0.2139,-0.2187,-0.2169,-0.2143,-0.2159,-0.2097,-0.2091,-0.2047,-0.2044,-0.2041,-0.2036,-0.205,-0.205,-0.1852,-0.185,0,0,-0.2186,-0.2221,-0.2143,-0.2136,-0.2154,-0.216,-0.2158,-0.2094,-0.2107,-0.2044,-0.2039,-0.2035,-0.2049,-0.2049,-0.1853,-0.1851,0,0,0,-0.218,-0.2222,-0.2179,-0.2139,-0.2131,-0.2159,-0.2157,-0.2111,-0.2085,-0.2038,-0.2034,-0.2049,-0.2047,-0.1854,-0.1852,-0.1896,0,0,0,-0.2182,-0.2216,-0.218,-0.2206,-0.2132,-0.2136,-0.2176,-0.2091,-0.2083,-0.2034,-0.2049,-0.2046,-0.1856,-0.1853,-0.1898,-0.1945,0,0,0,-0.2191,-0.2219,-0.2204,-0.2206,-0.2183,-0.2136,-0.211,-0.209,-0.2078,-0.2051,-0.2046,-0.1857,-0.1854,-0.19,-0.1945,-0.194,0,0,0,-0.2242,-0.2207,-0.2206,-0.2186,-0.2183,-0.2088,-0.2111,-0.2084,-0.2061,-0.2048,-0.1855,-0.1852,-0.19,-0.1946,-0.1941,-0.1698,-0.1676,0,0,-0.2213,-0.2206,-0.2192,-0.2188,-0.2068,-0.2093,-0.2005,-0.2012,-0.1992,-0.1879,-0.1875,-0.1897,-0.1946,-0.194,-0.1523,-0.1507,0,0,0,-0.2192,-0.2149,-0.2122,-0.207,-0.202,-0.1984,-0.1961,-0.195,-0.1908,-0.1959,-0.1823,-0.1851,-0.1848,-0.1698,-0.1684,-0.1838,-0.1838,-0.1839,-0.1839,-0.2151,-0.2112,-0.2035,-0.1962,-0.1924,-0.1889,-0.1889,-0.1854,-0.1832,-0.1819,-0.1831,-0.1783,-0.1618,-0.1606,-0.175,-0.175,-0.175,-0.175,-0.175,-0.2016,-0.1977,-0.1938,-0.1856,-0.1844,-0.1802,-0.1794,-0.1824,-0.1795,-0.1784,-0.1778,-0.1681,-0.1594,-0.1752,-0.1752,-0.1752,-0.1751,-0.1751,-0.1751,-0.1967,-0.1942,-0.1902,-0.18,-0.1801,-0.1809,-0.181,-0.1848,-0.1842,-0.1852,-0.1657,-0.1652,-0.1865,-0.1835,-0.1835,-0.1835,-0.1835,-0.1835,-0.1835,-0.1957,-0.189,-0.183,-0.1764,-0.1775,-0.1812,-0.1859,-0.1836,-0.1739,-0.168,-0.1677,-0.1812,-0.1809,-0.1866,-0.1838,-0.1837,-0.1837,-0.1837,-0.1837,-0.1885,-0.1896,-0.1759,-0.1741,-0.1708,-0.168,-0.1758,-0.1608,-0.1586,-0.147,-0.1558,-0.1564,-0.1532,-0.1538,-0.1584,-0.1486,-0.1486,-0.1486,-0.1486,-0.1896,-0.1867,-0.1682,-0.1584,-0.155,-0.1591,-0.1436,-0.1312,-0.1254,-0.1221,-0.1233,-0.1147,-0.1165,-0.1111,-0.1126,-0.1165,-0.0957,-0.0957,-0.0957,-0.1853,-0.1794,-0.1638,-0.1491,-0.145,-0.1434,-0.1274,-0.1064,-0.0916,-0.0948,-0.1265,-0.1427,-0.1328,-0.1345,-0.1285,-0.1301,-0.1371,0,0]},{"header":{"parameterUnit":"m.s-1","parameterCategory":2,"la1":30.2992,"la2":30.254,"lo1":-89.0895,"lo2":-89.0443,"dy":0.0025,"dx":0.0025,"nx":19,"ny":19,"refTime":"2026-04-24T21:00:00:Z","depth":"2","parameterNumber":3,"parameterNumberName":"V-component_of_CURRENTS"},"data":[0,0,0,-0.0484,-0.0482,-0.0348,-0.0347,-0.0134,-0.0132,0,0,0,0,0,0,0,0,0,0,0,-0.0526,-0.0526,-0.0484,-0.0482,-0.0348,-0.0347,-0.0134,-0.0132,0,0,0,0,0,0,0,0,0,0,0,-0.0526,-0.0526,-0.0526,-0.0481,-0.0348,-0.0347,-0.0135,-0.0239,0,0,0,0,0,0,0,0,0,0,-0.0371,-0.0415,-0.0526,-0.0526,-0.0481,-0.0348,-0.0347,-0.0244,-0.0233,-0.0192,0,-0.0188,0,-0.0168,-0.012,-0.0119,0,0,0,-0.0452,-0.0425,-0.0407,-0.0526,-0.048,-0.0349,-0.04,-0.0238,-0.0225,-0.0177,-0.0185,-0.0177,-0.0165,-0.0119,-0.0118,-0.0078,-0.0079,0,0,-0.046,-0.0476,-0.0417,-0.04,-0.0465,-0.0404,-0.0396,-0.023,-0.0213,-0.0184,-0.0172,-0.0161,-0.0117,-0.0116,-0.0078,-0.0079,0,0,0,-0.0501,-0.0481,-0.0467,-0.0408,-0.0395,-0.0401,-0.0392,-0.0219,-0.0221,-0.017,-0.0159,-0.0116,-0.0114,-0.0077,-0.0078,-0.0173,0,0,0,-0.0504,-0.0507,-0.0471,-0.0475,-0.0399,-0.0308,-0.0385,-0.0232,-0.0213,-0.016,-0.0116,-0.0112,-0.0075,-0.0077,-0.0168,-0.0205,0,0,0,-0.0529,-0.0509,-0.0505,-0.0477,-0.0435,-0.0311,-0.03,-0.0227,-0.0207,-0.0119,-0.0112,-0.0075,-0.0077,-0.0164,-0.0198,-0.0172,0,0,0,-0.0533,-0.0555,-0.0505,-0.0511,-0.0437,-0.0411,-0.0301,-0.024,-0.0174,-0.0115,-0.0076,-0.0078,-0.0162,-0.0194,-0.0169,-0.0141,-0.0153,0,0,-0.0575,-0.056,-0.0565,-0.0519,-0.0529,-0.0426,-0.0413,-0.027,-0.0198,-0.0119,-0.0117,-0.017,-0.0198,-0.0171,-0.0275,-0.0282,0,0,0,-0.0588,-0.0595,-0.0588,-0.057,-0.0533,-0.049,-0.037,-0.0322,-0.0245,-0.0175,-0.019,-0.0205,-0.0184,-0.0163,-0.017,-0.0089,-0.0089,-0.0088,-0.0088,-0.0658,-0.0639,-0.0655,-0.0629,-0.0606,-0.0525,-0.048,-0.0398,-0.0316,-0.0315,-0.0298,-0.0366,-0.0349,-0.0353,-0.0317,-0.0317,-0.0317,-0.0318,-0.0318,-0.0724,-0.0738,-0.0703,-0.0713,-0.0674,-0.0649,-0.0565,-0.0507,-0.0446,-0.0402,-0.0376,-0.0285,-0.0366,-0.0326,-0.0324,-0.0323,-0.0322,-0.0322,-0.0321,-0.0764,-0.078,-0.0767,-0.078,-0.077,-0.0713,-0.0685,-0.0622,-0.0528,-0.0523,-0.0427,-0.0424,-0.0376,-0.0491,-0.0491,-0.0492,-0.0492,-0.0492,-0.0492,-0.0824,-0.0823,-0.0845,-0.0848,-0.0844,-0.0828,-0.0747,-0.0685,-0.0586,-0.0526,-0.0524,-0.0423,-0.0417,-0.0385,-0.0493,-0.0493,-0.0493,-0.0493,-0.0493,-0.0901,-0.0893,-0.0927,-0.0931,-0.0933,-0.0936,-0.084,-0.07,-0.0615,-0.0557,-0.0495,-0.0494,-0.0441,-0.0434,-0.0402,-0.0508,-0.0508,-0.0508,-0.0508,-0.0952,-0.0954,-0.0991,-0.101,-0.1026,-0.0988,-0.0908,-0.0729,-0.0561,-0.0457,-0.046,-0.0437,-0.0438,-0.0382,-0.0376,-0.0341,-0.0431,-0.0431,-0.0431,-0.1004,-0.1002,-0.1035,-0.105,-0.1065,-0.1044,-0.0973,-0.0635,-0.0287,-0.0427,-0.0434,-0.0505,-0.0477,-0.0477,-0.0389,-0.0381,-0.0324,0,0]}],[{"header":{"parameterUnit":"m.s-1","parameterCategory":2,"la1":30.2992,"la2":30.254,"lo1":-89.0895,"lo2":-89.0443,"dy":0.0025,"dx":0.0025,"nx":19,"ny":19,"refTime":"2026-04-24T21:00:00:Z","depth":"4","parameterNumber":2,"parameterNumberName":"U-component_of_CURRENTS"},"data":[0,0,0,-0.0895,-0.0897,-0.1018,-0.1018,-0.1117,-0.1117,0,0,0,0,0,0,0,0,0,0,0,-0.0861,-0.0862,-0.0895,-0.0897,-0.1018,-0.1018,-0.1117,-0.1117,0,0,0,0,0,0,0,0,0,0,0,-0.0861,-0.0862,-0.0863,-0.0898,-0.1018,-0.1018,-0.1117,-0.1042,0,0,0,0,0,0,0,0,0,0,-0.0933,-0.0904,-0.0862,-0.0863,-0.0898,-0.1017,-0.1018,-0.1039,-0.1047,-0.1043,0,-0.1066,0,-0.1085,-0.1122,-0.1122,0,0,0,-0.0907,-0.0898,-0.0929,-0.0863,-0.0899,-0.1017,-0.0966,-0.1044,-0.1052,-0.1053,-0.1068,-0.1072,-0.1087,-0.1122,-0.1123,-0.1213,-0.1213,0,0,-0.0901,-0.0883,-0.0924,-0.0935,-0.0935,-0.0962,-0.097,-0.105,-0.1059,-0.1068,-0.1074,-0.1089,-0.1123,-0.1123,-0.1212,-0.1213,0,0,0,-0.0875,-0.0878,-0.091,-0.093,-0.0952,-0.0965,-0.0974,-0.1056,-0.1067,-0.1076,-0.109,-0.1123,-0.1124,-0.1212,-0.1213,-0.1237,0,0,0,-0.0871,-0.0862,-0.0906,-0.0897,-0.0951,-0.1012,-0.0978,-0.1062,-0.1071,-0.1089,-0.1123,-0.1125,-0.1211,-0.1212,-0.1235,-0.1224,0,0,0,-0.0855,-0.086,-0.0876,-0.0896,-0.0943,-0.1011,-0.1028,-0.1065,-0.1078,-0.1122,-0.1125,-0.1211,-0.1212,-0.1234,-0.1222,-0.1203,0,0,0,-0.083,-0.0852,-0.0876,-0.0915,-0.0942,-0.1017,-0.1028,-0.1086,-0.1125,-0.1123,-0.1211,-0.1212,-0.1233,-0.1221,-0.1202,-0.1027,0,0,0,-0.0839,-0.0853,-0.0877,-0.0901,-0.0968,-0.1001,-0.1079,-0.1129,-0.1141,-0.1181,-0.1184,-0.1236,-0.1222,-0.1203,-0.1098,0,0,0,0,-0.0869,-0.0888,-0.0913,-0.0963,-0.1017,-0.108,-0.1134,-0.1157,-0.1213,-0.1168,-0.1253,-0.1243,-0.123,-0.1128,-0.1218,-0.1218,-0.1218,-0.1218,-0.1218,-0.0849,-0.0895,-0.0944,-0.101,-0.1062,-0.1141,-0.1187,-0.123,-0.1242,-0.1271,-0.1277,-0.1296,-0.1193,-0.1304,-0.1305,-0.1305,-0.1305,-0.1305,-0.1305,-0.0864,-0.0893,-0.0967,-0.1029,-0.1103,-0.1172,-0.125,-0.1271,-0.1309,-0.1318,-0.1304,-0.1179,-0.1308,-0.1307,-0.1307,-0.1306,-0.1306,-0.1306,-0.1306,-0.0844,-0.0862,-0.0919,-0.1009,-0.1097,-0.1185,-0.1226,-0.1286,-0.1313,-0.132,-0.1185,-0.1298,-0.1277,-0.1309,-0.1309,-0.1309,-0.1309,-0.1309,-0.1309,-0.0785,-0.0843,-0.0883,-0.0985,-0.1039,-0.1114,-0.1204,-0.1207,-0.1249,-0.1176,-0.1313,-0.1296,-0.1296,-0.1277,-0.1307,-0.1307,-0.1308,-0.1308,-0.1308,-0.0737,-0.0765,-0.0814,-0.0863,-0.0971,-0.1014,-0.1114,-0.1076,-0.1056,-0.1002,-0.1093,-0.1104,-0.1065,-0.107,-0.1041,-0.1003,-0.1001,-0.0999,0,-0.0683,-0.0707,-0.0748,-0.0794,-0.0842,-0.0946,-0.0883,-0.0901,-0.0924,-0.0902,-0.1065,-0.1171,-0.1177,-0.1139,-0.114,-0.1108,0,0,0,-0.0637,-0.0662,-0.0662,-0.0729,-0.0781,-0.0798,-0.0863,-0.0818,-0.0936,-0.0841,-0.0943,-0.0958,-0.116,-0.1302,-0.1269,-0.1269,-0.1235,0,0]},{"header":{"parameterUnit":"m.s-1","parameterCategory":2,"la1":30.2992,"la2":30.254,"lo1":-89.0895,"lo2":-89.0443,"dy":0.0025,"dx":0.0025,"nx":19,"ny":19,"refTime":"2026-04-24T21:00:00:Z","depth":"4","parameterNumber":3,"parameterNumberName":"V-component_of_CURRENTS"},"data":[0,0,0,-0.048,-0.048,-0.0449,-0.0449,-0.0358,-0.0357,0,0,0,0,0,0,0,0,0,0,0,-0.0487,-0.0488,-0.048,-0.048,-0.0449,-0.0449,-0.0358,-0.0357,0,0,0,0,0,0,0,0,0,0,0,-0.0487,-0.0488,-0.0488,-0.048,-0.0449,-0.0449,-0.0358,-0.039,0,0,0,0,0,0,0,0,0,0,-0.0425,-0.045,-0.0488,-0.0488,-0.048,-0.0449,-0.0449,-0.0392,-0.0388,-0.0362,0,-0.0367,0,-0.0367,-0.0351,-0.0351,0,0,0,-0.0464,-0.0453,-0.0444,-0.0488,-0.048,-0.045,-0.0458,-0.039,-0.0386,-0.0356,-0.0366,-0.0363,-0.0366,-0.0351,-0.035,-0.0267,-0.0266,0,0,-0.0465,-0.0478,-0.0447,-0.0442,-0.0484,-0.046,-0.0458,-0.0388,-0.0388,-0.0366,-0.0361,-0.0364,-0.035,-0.0349,-0.0267,-0.0267,0,0,0,-0.0481,-0.0479,-0.0472,-0.0445,-0.0448,-0.0459,-0.0457,-0.0391,-0.0389,-0.0361,-0.0363,-0.035,-0.0348,-0.0267,-0.0267,-0.0324,0,0,0,-0.0481,-0.049,-0.0473,-0.048,-0.045,-0.0428,-0.0461,-0.0393,-0.0386,-0.0364,-0.035,-0.0348,-0.0268,-0.0267,-0.0323,-0.0366,0,0,0,-0.0487,-0.049,-0.049,-0.0481,-0.0475,-0.0429,-0.0422,-0.0391,-0.0388,-0.0351,-0.0347,-0.0268,-0.0267,-0.0322,-0.0364,-0.0352,0,0,0,-0.0494,-0.0506,-0.0491,-0.0504,-0.0476,-0.046,-0.0423,-0.0405,-0.0379,-0.0349,-0.0268,-0.0267,-0.0322,-0.0362,-0.0351,-0.0342,0,0,0,-0.0514,-0.0509,-0.0516,-0.0502,-0.0505,-0.0462,-0.0447,-0.0401,-0.0355,-0.0285,-0.0283,-0.0323,-0.0363,-0.0352,-0.0303,0,0,0,0,-0.0525,-0.0531,-0.0527,-0.0528,-0.0508,-0.0486,-0.0437,-0.0402,-0.0343,-0.0339,-0.0294,-0.0317,-0.0309,-0.0298,-0.0264,-0.0264,-0.0264,-0.0264,-0.0264,-0.056,-0.0553,-0.0565,-0.0552,-0.0541,-0.0496,-0.0464,-0.04,-0.0357,-0.0334,-0.0341,-0.0345,-0.0333,-0.0305,-0.0305,-0.0305,-0.0305,-0.0305,-0.0306,-0.0586,-0.0594,-0.059,-0.06,-0.058,-0.0563,-0.0488,-0.0451,-0.0387,-0.0357,-0.0345,-0.0331,-0.031,-0.0309,-0.0309,-0.0308,-0.0308,-0.0307,-0.0307,-0.06,-0.0605,-0.0617,-0.0639,-0.0645,-0.0612,-0.0592,-0.0528,-0.0446,-0.0437,-0.0392,-0.0372,-0.0392,-0.0422,-0.0422,-0.0422,-0.0422,-0.0422,-0.0423,-0.0612,-0.0623,-0.0656,-0.0677,-0.07,-0.0704,-0.0657,-0.0611,-0.0531,-0.0459,-0.0454,-0.0384,-0.038,-0.0396,-0.0425,-0.0424,-0.0424,-0.0424,-0.0424,-0.0622,-0.064,-0.0682,-0.0714,-0.0764,-0.076,-0.0733,-0.0629,-0.0577,-0.0503,-0.0445,-0.0443,-0.0419,-0.0414,-0.0431,-0.0472,-0.0472,-0.0472,0,-0.0632,-0.0643,-0.0707,-0.0761,-0.0798,-0.079,-0.0725,-0.0666,-0.0556,-0.0542,-0.0574,-0.0514,-0.0509,-0.0488,-0.0483,-0.0506,0,0,0,-0.0639,-0.0657,-0.0702,-0.0765,-0.0811,-0.0739,-0.0704,-0.0661,-0.057,-0.0515,-0.0471,-0.0471,-0.0487,-0.0431,-0.039,-0.0385,-0.0409,0,0]}]]